Location: Champs
(48.8539°N, 2.6040°E)
Time: 06:15:17
(UTC+00:00)

Meteor 1-31 Rocket - Pass Details

Date: 26 October 2021
Orbit: 519 x 545 km, 97.7° (Epoch: 04 December)

Event Time Altitude Azimuth Distance (km) Brightness Sun altitude
Rises 05:00:29 0° 15° (NNE) 2,664 6.5 -14.8°
Reaches altitude 10° 05:02:37 10° 17° (NNE) 1,768 5.6 -14.5°
Maximum altitude 05:06:25 71° 102° (ESE) 556 3.0 -13.8°
Drops below altitude 10° 05:10:10 10° 187° (S) 1,749 5.4 -13.2°
Sets 05:12:16 0° 190° (S) 2,632 6.2 -12.9°
